Regional Weather Roundup
Issued by NWS Jackson, KY

Home | Current Version | Previous Version | Text Only | Print | Product List | Glossary Off
Versions: 1 2 3 4 5 6 7 8 9 10 11 12 13 14 15 16 17 18 19 20 21 22 23 24 25 26 27 28 29 30 31 32 33 34 35 36 37 38 39 40 41 42 43 44 45 46 47 48 49 50

000
ASUS43 KJKL 240110
RWRJKL

EAST KENTUCKY HOURLY WEATHER ROUNDUP
NATIONAL WEATHER SERVICE JACKSON KY
800 PM EST TUE JAN 23 2018

NOTE: "FAIR" INDICATES FEW OR NO CLOUDS BELOW 12,000 FEET WITH
NO SIGNIFICANT WEATHER AND/OR OBSTRUCTIONS TO VISIBILITY.

* THESE REPORTS ARE NOT UNDER NWS QUALITY CONTROL AND MAY NOT
  REPORT WEATHER SUCH AS PRECIPITATION AND FOG.

KYZ079-080-083-085-087-088-110-112-115-119-120-240200
...EASTERN KENTUCKY...

CITY           SKY/WX    TMP DP  RH WIND       PRES   REMARKS
JACKSON        CLOUDY    38  29  70 VRB6G21   30.06R WCI  33
LONDON         CLOUDY    40  30  67 W8        30.09R WCI  34
SOMERSET*      CLOUDY    37  30  75 W13       30.14R WCI  29
WILLIAMSBURG*  CLOUDY    39  30  70 W5        30.11R
MIDDLESBORO*   CLOUDY    42  31  64 NW6       30.09R
HARLAN APT*    CLOUDY    41  28  60 SW15      30.07R
PIKE CO APT*   CLOUDY    39  28  63 W8        30.04R WCI  34
BIG SANDY APT* CLOUDY    40  28  60 W9        30.05R WCI  35
MOREHEAD APT*  MIX PCPN  39  30  70 W14G22    30.07S WCI  31
ASHLAND*       CLOUDY    41  30  65 W10       30.04R
$$

KYZ035-036-041-042-044-050-067-078-099-240200
...CENTRAL KENTUCKY...

CITY           SKY/WX    TMP DP  RH WIND       PRES   REMARKS
MT STERLING*   CLOUDY    37  32  81 W13G18    30.09R WCI  29
FLEMING/MASON* CLOUDY    37  33  86 W14       30.07R WCI  28
DANVILLE*      CLOUDY    36  32  87 W8        30.12R WCI  29
LEXINGTON      CLOUDY    38  30  73 W10       30.09R WCI  31
FRANKFORT      CLOUDY    37  30  75 W9        30.09R WCI  30
LOUISVILLE     CLOUDY    36  32  85 W15       30.13R WCI  27
LEBANON*       MOCLDY    36  32  87 W16G23    30.13R WCI  26
GLASGOW*       LGT RAIN  38  32  78 NW8       30.16R WCI  32
BOWLING GREEN  CLOUDY    38  34  85 NW9       30.19R WCI  31
$$

KYZ091>093-OHZ055-061-077-WVZ005-015-034-035-042-240200
...SOUTHERN OHIO/WEST VIRGINIA...

CITY           SKY/WX    TMP DP  RH WIND       PRES   REMARKS
COVINGTON      LGT RAIN  36  32  85 W17G25    30.04R WCI  26
COLUMBUS       CLOUDY    36  31  82 W16       29.97R WCI  26
DAYTON         CLOUDY    33  33 100 W14       30.01R FOG     WCI  23
WILMINGTON     CLOUDY    35  33  92 W14G21    30.01R WCI  26
HUNTINGTON     CLOUDY    41  27  57 SW9       30.03R
CHARLESTON     CLOUDY    41  27  57 VRB7      30.02R
BECKLEY        CLOUDY    37  25  61 W18G24    29.95R WCI  27
BLUEFIELD      CLOUDY    36  23  59 NW15G23   29.95R WCI  27
LOGAN CO APT*  CLOUDY    39  25  56 W13       30.02R WCI  32
$$

VAZ002-007-008-TNZ017-027-036-066-071-240200
...SOUTHWEST VIRGINIA/EAST TENNESSEE...

CITY           SKY/WX    TMP DP  RH WIND       PRES   REMARKS
WISE*          CLOUDY    37  30  75 W10       30.02R WCI  30
JONESVILLE*    CLOUDY    41  30  65 W7        30.08R
ABINGDON*      CLOUDY    45  29  54 W10       29.99R
BRISTOL        CLOUDY    45  30  55 W9        30.02R
MORRISTOWN*    CLOUDY    45  30  57 NW9       30.06R
SEVIERVILLE*   CLOUDY    46  28  49 W12G20    30.09R
KNOXVILLE      MOCLDY    44  30  57 W10       30.10R
LAFOLLETTE*    CLOUDY    43  30  61 CALM      30.14R
OAK RIDGE      CLOUDY    44  30  57 W9        30.13R
CROSSVILLE     CLOUDY    36  27  69 W10       30.11R WCI  28
NASHVILLE      CLOUDY    41  29  62 W10       30.20R
$$

...KEY TO REMARKS...
VSB - VISIBILITY IN MILES
WCI - WIND CHILL INDEX
HX  - HEAT INDEX

$$



USA.gov is the U.S. government's official web portal to all federal, state and local government web resources and services.